Location: Observatoire Alphonse-Tardif � St-N�r�e
(46.7267°N, 70.7033°W)
Time: 18:44:04
(UTC-04:00)

Tiangong 2 - Visible Passes

Search period start: 23 March 2019 00:00
Search period end: 02 April 2019 00:00
Orbit: 380 x 390 km, 42.8° (Epoch: 23 March)

Date Brightness Start Highest point End Pass type
(mag) Time Alt. Az. Time Alt. Az. Time Alt. Az.
30 Mar 3.3 20:23:22 10° S 20:24:26 13° SSE 20:24:26 13° SSE visible
31 Mar 3.0 20:59:06 10° SW 21:00:26 19° SSW 21:00:26 19° SSW visible
01 Apr 2.7 20:00:04 10° SSW 20:02:26 20° SSE 20:04:02 14° ESE visible
01 Apr 3.8 21:35:47 10° WSW 21:36:16 13° WSW 21:36:16 13° WSW visible
